Wind_Speed
3 3 3 3 3 4 4 4 4 5 4 5 5 5 4 4 4 4 3 3 3 2 2 2 2 2 2 3 3 3 3 2 2 2 2 2 1 1 1 1 1 1 1
5 5 5 5 5 5 5 6 6 6 6 6 6 6 6 5 5 5 5 4 4 4 3 3 3 3 3 3 3 3 3 3 2 2 2 2 1 1 1 1 1 1 1
8 7 6 6 6 7 7 7 8 8 8 8 7 7 7 6 6 6 6 5 5 5 5 5 5 5 4 4 4 4 4 4 3 3 3 3 3 2 2 2 2 2 2
9 9 9 8 9 9 9 9 9 9 9 9 9 9 8 8 7 7 7 6 6 6 6 6 6 6 6 6 6 5 5 5 5 4 4 4 4 4 3 3 3 3 3
10 10 10 11 11 12 11 11 11 11 11 11 11 10 10 9 9 9 8 8 8 8 8 8 8 8 7 7 7 7 7 7 6 6 5 6 5 5 5 4 5 5 4
11 11 11 12 13 13 14 13 13 13 13 13 12 12 12 11 11 10 10 10 10 10 10 9 9 9 9 9 9 9 9 9 8 7 7 7 7 6 6 6 6 6 6
12 12 12 13 13 14 15 15 15 15 15 15 14 14 14 13 12 12 12 12 12 12 11 11 11 11 11 11 11 11 11 11 10 9 9 9 8 7 8 8 8 8 8
13 13 13 14 15 15 16 16 17 17 17 16 16 15 15 14 14 14 13 13 13 13 12 13 13 13 13 13 13 13 13 12 12 11 11 10 10 9 9 10 10 10 10
14 15 15 15 16 17 18 19 18 18 18 18 18 17 17 16 15 15 15 15 15 14 14 14 14 15 15 15 15 14 14 14 14 13 12 12 12 11 11 11 11 11 11
16 16 16 16 17 18 19 20 20 20 20 19 19 19 19 18 17 16 16 16 16 16 16 15 16 16 16 16 16 16 16 15 15 15 14 13 14 13 13 14 13 13 14
17 17 16 17 18 18 19 20 21 21 21 20 20 19 19 19 19 18 18 18 17 17 17 17 17 17 17 17 17 17 17 17 17 16 15 15 15 16 15 15 15 15 15
18 18 17 19 18 19 18 19 20 20 20 20 19 19 19 20 20 19 19 19 19 19 18 18 18 18 18 18 18 18 19 19 19 18 17 16 17 18 17 17 16 17 17
19 19 19 20 19 19 19 20 20 21 21 19 19 20 20 21 20 20 20 20 20 20 20 20 19 19 19 19 19 19 20 20 20 19 19 18 19 19 19 19 19 18 18
19 19 19 20 20 20 21 22 22 22 22 22 21 22 22 22 21 20 20 21 21 21 21 20 20 20 20 21 20 20 21 22 22 20 21 20 20 21 20 21 20 20 19
19 19 19 19 21 20 21 21 22 22 23 22 22 22 23 22 22 22 21 22 22 22 22 22 22 22 22 22 21 21 22 22 23 22 22 22 22 22 22 21 21 21 21
19 19 19 19 20 21 22 23 22 22 23 23 23 23 23 23 23 23 22 23 24 24 23 24 24 24 24 24 23 23 22 23 23 23 23 23 22 23 23 23 23 23 23
20 19 19 19 20 21 23 23 23 23 23 23 23 24 24 24 24 24 24 24 25 25 25 25 25 25 25 25 24 24 23 23 23 23 23 23 22 22 23 23 23 24 24
20 20 20 20 21 22 24 24 24 24 24 25 26 26 26 26 25 25 25 25 25 26 26 26 26 26 26 25 25 25 24 25 25 24 24 24 24 24 24 24 25 25 25
20 20 20 21 21 23 24 25 26 25 25 27 26 26 27 26 25 26 26 26 27 27 28 28 27 26 26 26 26 26 26 26 27 26 26 26 25 25 26 26 26 26 26
20 20 20 21 21 23 24 25 26 26 26 27 27 27 27 27 27 27 27 27 28 29 29 28 28 28 27 27 26 26 26 27 26 26 27 26 27 26 26 27 27 27 27
19 19 20 21 21 23 23 25 26 26 27 28 28 28 28 27 28 28 28 29 29 29 30 29 29 29 28 27 27 27 27 27 27 27 27 26 26 27 27 28 28 28 28
21 21 21 22 22 23 24 24 25 26 26 25 26 27 28 28 28 29 29 29 30 30 30 30 30 30 29 28 27 27 27 27 28 28 27 27 27 27 27 28 28 28 29
21 22 22 23 23 24 24 25 25 25 25 25 25 25 27 29 29 30 29 29 30 30 30 31 30 30 29 29 28 28 28 28 28 28 29 28 28 28 28 28 29 29 29
20 21 22 23 24 25 26 25 25 25 25 25 26 27 28 29 29 30 29 29 30 30 30 30 29 29 29 29 29 29 29 29 29 28 29 30 29 29 29 29 29 29 28
21 22 23 24 24 24 24 25 25 25 26 27 28 29 29 29 30 30 31 30 30 30 30 31 30 30 30 30 30 29 29 30 30 30 29 29 30 29 29 29 29 29 29
23 23 23 23 23 23 24 25 26 26 27 28 28 29 29 30 30 31 31 31 31 31 31 31 30 31 31 30 30 30 29 29 29 29 29 29 29 29 29 28 28 29 28
Wind_Direction
260 255 253 246 246 244 244 245 245 246 248 246 245 238 238 244 254 260 266 269 275 283 285 293 310 324 338 351 356 357 351 348 355 356 5 5 6 13 21 11 356 351 352
270 273 261 259 254 251 252 256 256 255 252 251 252 251 250 252 259 265 270 271 276 280 281 284 290 297 305 314 322 326 323 312 316 317 318 323 315 300 297 303 306 287 278
273 275 268 262 258 257 261 263 262 261 258 256 256 258 258 257 260 264 268 268 273 279 282 284 286 287 290 294 296 299 302 295 291 295 294 292 288 275 269 268 265 259 255
276 275 272 266 262 265 267 268 268 265 262 261 260 261 262 262 263 266 266 267 272 277 281 283 284 284 284 286 287 287 290 289 284 281 281 277 276 272 268 266 261 253 251
281 278 275 272 273 276 275 272 270 268 265 262 261 261 262 262 263 265 267 269 272 275 278 279 279 280 281 282 283 282 282 282 280 274 272 272 268 266 265 265 265 262 257
280 279 276 277 279 279 277 273 271 269 266 264 263 262 262 262 263 266 270 271 273 276 277 278 279 278 278 279 279 278 277 278 276 273 271 270 269 266 264 264 266 265 261
281 280 278 278 280 280 277 273 270 269 269 267 265 265 264 263 264 267 270 272 272 274 275 276 278 278 279 278 278 278 278 277 275 274 272 272 274 272 269 267 265 264 261
279 278 276 277 277 277 275 271 269 266 268 268 266 266 266 266 267 268 270 271 271 273 273 274 277 277 277 276 276 277 277 277 275 272 272 273 269 267 267 268 264 264 259
277 279 280 279 276 275 273 271 267 265 266 267 266 267 268 266 267 269 271 272 271 272 273 275 276 277 277 275 275 276 275 275 273 271 270 269 269 267 265 265 263 261 258
279 280 282 281 281 279 276 271 268 266 266 266 266 266 267 267 268 270 272 272 272 272 273 274 275 277 277 277 276 275 274 274 274 272 268 269 270 268 265 263 261 260 258
282 283 282 285 287 284 280 276 271 267 264 264 265 266 266 268 269 269 271 273 273 274 274 275 276 276 276 276 275 274 273 273 271 272 270 270 268 268 267 264 262 261 260
281 282 283 285 284 283 280 280 276 272 267 264 264 269 271 271 271 272 273 273 274 275 276 277 277 276 276 276 275 272 271 271 271 271 270 269 267 267 267 265 263 263 260
278 280 281 281 281 282 282 280 275 271 269 269 270 273 274 274 273 274 276 276 275 275 277 277 277 276 277 277 275 273 272 271 272 271 270 269 267 264 264 263 263 262 260
279 282 282 281 282 283 279 278 276 275 274 272 274 277 278 278 278 277 278 277 277 277 278 277 276 276 276 274 274 274 273 272 272 269 269 268 268 265 264 263 263 261 260
278 282 284 285 287 288 285 283 280 276 274 275 276 278 278 279 279 278 278 279 278 279 280 280 277 276 277 277 275 275 274 274 274 267 265 268 269 267 265 264 263 261 261
282 283 285 285 289 289 285 284 283 278 277 276 277 277 276 277 277 278 280 280 280 280 280 279 279 278 277 278 277 274 274 273 272 269 269 268 269 267 265 264 263 262 262
281 282 284 286 289 288 285 285 284 281 277 276 278 279 278 279 279 279 279 280 281 281 281 280 281 279 278 279 279 276 275 275 276 273 271 269 268 267 265 265 265 263 262
282 282 284 285 286 287 287 285 282 279 278 279 278 280 279 279 279 280 281 282 281 281 282 282 282 280 279 279 277 275 274 273 274 272 271 269 268 268 266 266 265 264 264
283 283 283 284 286 287 286 285 281 278 280 281 279 279 280 280 279 280 281 281 282 283 283 283 282 280 280 279 277 275 275 275 275 273 271 271 271 270 269 266 266 265 264
285 285 286 286 287 287 287 287 284 282 282 281 281 281 282 280 281 281 282 281 282 283 283 283 282 280 280 278 276 275 274 274 274 274 273 273 273 271 270 269 267 265 264
284 286 285 286 287 288 289 289 287 285 284 280 281 282 283 281 280 281 282 281 282 282 282 282 282 281 280 277 276 275 274 273 272 272 272 272 273 272 270 270 269 267 265
285 286 288 287 287 289 291 291 289 289 289 287 287 286 283 283 282 281 282 281 281 281 281 280 280 280 279 278 277 276 275 274 273 271 272 273 272 272 272 272 270 268 267
287 287 288 288 287 289 290 292 291 289 289 289 289 288 286 284 283 282 282 281 280 281 282 281 279 278 278 278 277 276 276 275 273 273 273 273 273 272 272 273 271 270 269
289 288 289 290 290 289 290 291 291 290 291 290 289 288 289 287 285 283 282 281 281 281 281 280 277 276 276 276 276 276 276 275 274 273 273 274 274 272 273 272 271 269 269
291 292 291 293 294 293 292 292 293 292 292 292 292 290 289 289 287 284 283 282 283 282 280 279 279 277 276 275 275 276 275 274 273 273 273 274 274 274 274 273 271 270 270
292 292 292 294 294 293 294 294 294 294 294 294 295 292 291 290 288 285 284 282 283 283 282 281 279 279 277 276 276 274 273 273 273 273 273 273 273 274 274 274 274 273 272
Height
5907 5907 5907 5907 5907 5907 5907 5907 5907 5907 5907 5907 5907 5907 5906 5906 5906 5905 5905 5904 5904 5903 5903 5902 5902 5902 5901 5901 5900 5900 5900 5900 5900 5899 5899 5899 5899 5899 5899 5899 5899 5899 5899
5906 5906 5906 5906 5906 5906 5907 5906 5906 5906 5906 5906 5906 5906 5906 5905 5905 5905 5904 5904 5903 5903 5903 5902 5902 5901 5901 5901 5900 5900 5899 5899 5899 5899 5899 5899 5898 5898 5898 5898 5899 5899 5899
5905 5905 5905 5905 5905 5905 5906 5905 5905 5905 5905 5905 5905 5905 5905 5904 5904 5904 5903 5903 5903 5902 5902 5902 5901 5901 5900 5900 5900 5899 5899 5899 5899 5899 5898 5898 5898 5898 5898 5898 5898 5898 5899
5904 5904 5904 5904 5904 5904 5904 5904 5904 5903 5903 5903 5903 5903 5903 5903 5903 5903 5902 5902 5901 5901 5901 5901 5901 5900 5900 5899 5899 5899 5898 5898 5898 5898 5898 5898 5897 5897 5897 5897 5898 5898 5898
5903 5903 5903 5903 5903 5902 5902 5902 5902 5902 5901 5901 5901 5901 5901 5901 5901 5901 5901 5900 5900 5900 5900 5900 5899 5899 5899 5898 5898 5898 5897 5897 5897 5897 5897 5897 5896 5896 5896 5897 5897 5897 5897
5901 5901 5901 5901 5901 5901 5900 5900 5900 5899 5899 5899 5899 5899 5899 5899 5899 5899 5899 5898 5898 5898 5898 5898 5898 5897 5897 5897 5897 5896 5896 5896 5896 5896 5896 5895 5894 5895 5895 5896 5896 5896 5896
5900 5899 5899 5899 5899 5898 5898 5898 5897 5897 5897 5897 5897 5897 5897 5897 5896 5896 5896 5896 5896 5896 5896 5896 5896 5896 5895 5895 5895 5894 5894 5894 5894 5894 5894 5894 5893 5894 5894 5894 5895 5895 5895
5897 5897 5897 5896 5896 5896 5895 5895 5895 5895 5894 5894 5894 5894 5894 5894 5894 5893 5894 5894 5894 5894 5894 5894 5893 5893 5893 5893 5893 5892 5892 5892 5892 5892 5892 5892 5892 5892 5892 5893 5893 5893 5894
5895 5894 5894 5893 5893 5892 5892 5891 5891 5891 5891 5891 5891 5891 5891 5891 5891 5891 5891 5891 5891 5891 5891 5891 5891 5890 5890 5890 5890 5890 5890 5889 5889 5890 5890 5890 5889 5889 5890 5891 5891 5891 5892
5892 5891 5891 5891 5890 5889 5888 5888 5888 5888 5888 5888 5888 5888 5888 5887 5888 5887 5887 5887 5887 5888 5888 5888 5887 5887 5887 5887 5887 5887 5887 5887 5887 5887 5887 5886 5887 5887 5887 5888 5889 5889 5889
5889 5888 5887 5887 5887 5886 5885 5884 5884 5884 5884 5884 5884 5884 5884 5884 5884 5884 5884 5884 5884 5884 5884 5884 5884 5884 5884 5883 5883 5884 5883 5883 5884 5884 5884 5885 5884 5884 5885 5886 5886 5886 5887
5885 5885 5884 5884 5883 5882 5881 5881 5881 5881 5880 5880 5880 5880 5880 5880 5880 5880 5880 5880 5880 5880 5880 5880 5880 5880 5880 5880 5880 5880 5879 5879 5879 5880 5881 5880 5880 5881 5882 5882 5883 5883 5883
5881 5881 5881 5880 5880 5879 5878 5878 5877 5877 5876 5875 5875 5876 5876 5876 5876 5876 5876 5876 5876 5876 5876 5876 5876 5876 5876 5876 5876 5876 5875 5875 5875 5876 5876 5875 5876 5878 5878 5879 5879 5879 5880
5878 5877 5877 5877 5876 5876 5875 5874 5874 5873 5872 5872 5872 5872 5872 5871 5871 5871 5871 5870 5871 5871 5871 5871 5871 5871 5871 5870 5870 5870 5871 5871 5871 5871 5871 5870 5871 5872 5873 5874 5874 5875 5876
5874 5874 5874 5873 5873 5872 5871 5870 5870 5869 5868 5868 5868 5867 5867 5867 5867 5867 5867 5866 5866 5866 5867 5866 5866 5867 5866 5865 5864 5865 5866 5865 5866 5865 5865 5865 5866 5867 5868 5869 5870 5870 5871
5872 5871 5871 5870 5869 5868 5868 5867 5866 5864 5863 5864 5864 5863 5863 5862 5862 5862 5862 5861 5862 5862 5862 5861 5861 5861 5860 5860 5860 5860 5860 5860 5861 5860 5861 5861 5861 5862 5863 5864 5864 5865 5866
5868 5867 5867 5867 5866 5865 5864 5863 5861 5860 5859 5858 5859 5859 5858 5857 5858 5857 5857 5856 5856 5856 5856 5856 5856 5855 5855 5855 5854 5854 5854 5854 5855 5855 5855 5856 5855 5856 5857 5858 5859 5859 5860
5864 5864 5863 5863 5862 5861 5860 5858 5857 5856 5855 5855 5855 5854 5853 5853 5852 5852 5852 5851 5850 5850 5850 5850 5850 5849 5849 5849 5848 5848 5848 5849 5849 5849 5849 5849 5850 5850 5851 5852 5852 5853 5854
5861 5860 5859 5859 5858 5857 5856 5854 5853 5851 5851 5851 5849 5848 5847 5847 5846 5846 5846 5845 5844 5844 5844 5844 5844 5843 5843 5843 5842 5842 5842 5842 5842 5842 5843 5843 5843 5844 5844 5845 5846 5846 5847
5857 5856 5856 5855 5854 5853 5852 5850 5848 5847 5846 5846 5845 5842 5842 5842 5841 5840 5840 5839 5839 5838 5838 5837 5837 5836 5836 5836 5835 5835 5835 5835 5836 5836 5836 5837 5837 5837 5838 5838 5839 5840 5841
5854 5853 5852 5851 5850 5849 5847 5845 5844 5842 5841 5840 5839 5838 5837 5836 5835 5834 5834 5833 5832 5832 5831 5831 5830 5830 5830 5829 5829 5829 5829 5828 5829 5829 5829 5830 5830 5830 5831 5831 5832 5833 5834
5850 5849 5848 5847 5846 5844 5842 5840 5838 5837 5835 5834 5833 5832 5831 5830 5829 5828 5827 5826 5825 5825 5824 5824 5823 5823 5822 5822 5822 5821 5822 5822 5822 5822 5822 5823 5823 5823 5824 5825 5825 5826 5826
5845 5845 5843 5842 5841 5839 5838 5836 5834 5832 5830 5829 5828 5826 5825 5824 5822 5821 5820 5819 5818 5818 5817 5816 5816 5815 5815 5815 5814 5814 5814 5815 5815 5815 5815 5815 5816 5816 5817 5817 5818 5819 5819
5841 5840 5839 5838 5836 5834 5833 5831 5829 5827 5825 5823 5822 5820 5819 5817 5815 5814 5813 5811 5811 5810 5810 5809 5808 5807 5807 5807 5806 5806 5806 5806 5807 5807 5808 5808 5808 5809 5809 5810 5811 5811 5812
5837 5835 5834 5832 5831 5829 5827 5825 5823 5821 5819 5818 5816 5814 5812 5810 5808 5807 5806 5804 5803 5802 5802 5801 5800 5799 5799 5798 5799 5799 5798 5798 5798 5799 5800 5801 5801 5801 5802 5803 5803 5804 5805
5832 5831 5829 5828 5826 5824 5821 5819 5817 5815 5813 5811 5809 5807 5805 5803 5801 5800 5798 5797 5795 5794 5793 5792 5792 5791 5790 5790 5790 5790 5790 5791 5791 5791 5792 5793 5794 5794 5795 5796 5796 5797 5797